Harvey, ND

11:06 PM CDT on April 28, 2017 (GMT -0500)
Harvey

Weather History for K5H4 - January, 2014

Change the Weather History Date:

Saturday, January 11, 2014

  Actual Average (KRUG) Record (KRUG)
Temperature  
Mean Temperature 25 °F -  
Max Temperature 33 °F 11 °F 44 °F (1986)
Min Temperature 17 °F -8 °F -30 °F (1974)
Degree Days  
Heating Degree Days 40    
Moisture  
Dew Point 21 °F    
Average Humidity 88    
Maximum Humidity 100    
Minimum Humidity 69    
Precipitation  
Precipitation 0.00 in - - ()
Sea Level Pressure  
Sea Level Pressure 29.51 in    
Wind  
Wind Speed 13 mph (WSW)    
Max Wind Speed 22 mph    
Max Gust Speed 31 mph    
Visibility 9 miles    
Events Snow    
Averages and records for this station are not official NWS values.
T = Trace of Precipitation, MM = Missing Value Source: NWS Daily Summary

Daily Weather History Graph

Daily Weather History Graph

Search for Another Location

Airport or City:

Trip Planner

Search our weather history database for the weather conditions in past years. The results will help you decide how hot, cold, wet, or windy it might be!

Date:

Astronomy

Jan. 11, 2014 Rise Set
Actual Time 8:26 AM CST 5:09 PM CST
Civil Twilight 7:50 AM CST 5:44 PM CST
Nautical Twilight 7:12 AM CST 6:23 PM CST
Astronomical Twilight 6:35 AM CST 7:00 PM CST
Moon 1:58 PM CST (1/11) 4:28 AM CST (1/11)
Length of Visible Light 9h 54m
Length of Day
8h 43m
Waxing Gibbous, 83% of the Moon is Illuminated
Jan 11
Waxing Gibbous
Jan 15
Full
Jan 23
Last Quarter
Jan 30
New
Feb 6
First Quarter

Hourly Weather History & Observations

Time (CST) Temp. Windchill Dew Point Humidity Pressure Visibility Wind Dir Wind Speed Gust Speed Precip Events Conditions
12:15 AM 24.8 °F 11.9 °F 24.8 °F 100% 29.55 in 7.0 mi WNW 16.1 mph - N/A   Overcast
12:35 AM 24.8 °F 12.4 °F 24.8 °F 100% 29.55 in 7.0 mi WNW 15.0 mph 20.7 mph N/A   Overcast
12:55 AM 24.8 °F 12.4 °F 24.8 °F 100% 29.55 in 7.0 mi NW 15.0 mph - N/A   Overcast
1:15 AM 24.8 °F 11.5 °F 24.8 °F 100% 29.55 in 5.0 mi NW 17.3 mph - N/A   Overcast
1:35 AM 24.8 °F 10.0 °F 24.8 °F 100% 29.55 in 3.0 mi NW 21.9 mph 27.6 mph N/A   Overcast
1:55 AM 24.8 °F 10.3 °F 24.8 °F 100% 29.56 in 1.8 mi NW 20.7 mph 26.5 mph N/A   Overcast
2:15 AM 24.8 °F 10.7 °F 24.8 °F 100% 29.57 in 2.5 mi NW 19.6 mph 25.3 mph N/A Snow Light Snow
2:35 AM 24.8 °F 11.5 °F 24.8 °F 100% 29.58 in 5.0 mi NW 17.3 mph - N/A Snow Light Snow
2:55 AM 24.8 °F 11.9 °F 24.8 °F 100% 29.60 in 8.0 mi NW 16.1 mph 19.6 mph N/A   Overcast
3:15 AM 23.0 °F 11.1 °F 23.0 °F 100% 29.60 in 10.0 mi NW 12.7 mph - N/A   Mostly Cloudy
3:35 AM 21.2 °F 11.7 °F 21.2 °F 100% 29.59 in 10.0 mi WNW 8.1 mph - N/A   Partly Cloudy
3:55 AM 21.2 °F 10.1 °F 21.2 °F 100% 29.61 in 10.0 mi West 10.4 mph - N/A   Clear
4:15 AM 19.4 °F 7.9 °F 19.4 °F 100% 29.60 in 10.0 mi West 10.4 mph - N/A   Clear
4:35 AM 19.4 °F 7.9 °F 19.4 °F 100% 29.60 in 10.0 mi West 10.4 mph - N/A   Clear
4:55 AM 19.4 °F 7.2 °F 19.4 °F 100% 29.60 in 10.0 mi WNW 11.5 mph - N/A   Clear
5:15 AM 19.4 °F 8.6 °F 19.4 °F 100% 29.62 in 10.0 mi West 9.2 mph - N/A   Clear
5:35 AM 19.4 °F 9.5 °F 19.4 °F 100% 29.62 in 10.0 mi West 8.1 mph - N/A   Clear
5:55 AM 19.4 °F 7.9 °F 17.6 °F 93% 29.62 in 10.0 mi West 10.4 mph - N/A   Clear
6:15 AM 17.6 °F 7.3 °F 17.6 °F 100% 29.63 in 10.0 mi West 8.1 mph - N/A   Clear
6:35 AM 19.4 °F 7.9 °F 17.6 °F 93% 29.63 in 10.0 mi West 10.4 mph 17.3 mph N/A   Clear
6:55 AM 21.2 °F 8.3 °F 19.4 °F 93% 29.63 in 10.0 mi West 13.8 mph 18.4 mph N/A   Partly Cloudy
7:15 AM 19.4 °F 6.6 °F 17.6 °F 93% 29.62 in 10.0 mi West 12.7 mph - N/A   Clear
7:35 AM 19.4 °F 5.0 °F 17.6 °F 93% 29.62 in 10.0 mi West 16.1 mph - N/A   Clear
7:55 AM 19.4 °F 4.5 °F 17.6 °F 93% 29.61 in 10.0 mi WNW 17.3 mph - N/A   Clear
8:15 AM 19.4 °F 5.0 °F 15.8 °F 86% 29.60 in 10.0 mi WNW 16.1 mph 24.2 mph N/A   Clear
8:35 AM 19.4 °F 6.0 °F 15.8 °F 86% 29.62 in 10.0 mi West 13.8 mph - N/A   Clear
8:55 AM 17.6 °F 9.3 °F 15.8 °F 93% 29.64 in 10.0 mi WSW 5.8 mph - N/A   Partly Cloudy
9:15 AM 17.6 °F 9.3 °F 15.8 °F 93% 29.64 in 10.0 mi WSW 5.8 mph - N/A   Partly Cloudy
9:35 AM 17.6 °F 6.4 °F 15.8 °F 93% 29.64 in 10.0 mi West 9.2 mph - N/A   Clear
9:55 AM 19.4 °F 4.5 °F 15.8 °F 86% 29.64 in 10.0 mi West 17.3 mph 21.9 mph N/A   Clear
10:15 AM 19.4 °F 6.0 °F 15.8 °F 86% 29.64 in 10.0 mi West 13.8 mph 19.6 mph N/A   Clear
10:35 AM 19.4 °F 7.9 °F 17.6 °F 93% 29.64 in 10.0 mi WNW 10.4 mph 17.3 mph N/A   Clear
10:55 AM 21.2 °F 11.7 °F 17.6 °F 86% 29.65 in 10.0 mi West 8.1 mph - N/A   Clear
11:15 AM 23.0 °F 14.7 °F 17.6 °F 80% 29.64 in 10.0 mi West 6.9 mph - N/A   Clear
11:35 AM 23.0 °F 14.7 °F 17.6 °F 80% 29.63 in 10.0 mi WSW 6.9 mph - N/A   Clear
11:55 AM 23.0 °F 15.8 °F 17.6 °F 80% 29.63 in 10.0 mi WSW 5.8 mph - N/A   Clear
12:15 PM 23.0 °F 14.7 °F 17.6 °F 80% 29.63 in 10.0 mi SW 6.9 mph - N/A   Clear
12:35 PM 24.8 °F 16.9 °F 19.4 °F 80% 29.62 in 10.0 mi SW 6.9 mph - N/A   Clear
12:55 PM 23.0 °F 13.1 °F 19.4 °F 86% 29.60 in 10.0 mi WSW 9.2 mph - N/A   Clear
1:15 PM 24.8 °F 16.1 °F 19.4 °F 80% 29.58 in 10.0 mi West 8.1 mph - N/A   Clear
1:35 PM 24.8 °F 15.3 °F 19.4 °F 80% 29.56 in 10.0 mi WSW 9.2 mph - N/A   Clear
1:55 PM 24.8 °F 14.6 °F 19.4 °F 80% 29.55 in 10.0 mi WSW 10.4 mph - N/A   Clear
2:15 PM 24.8 °F 15.3 °F 19.4 °F 80% 29.55 in 10.0 mi SW 9.2 mph - N/A   Clear
2:35 PM 24.8 °F 16.9 °F 21.2 °F 86% 29.53 in 10.0 mi WSW 6.9 mph - N/A   Partly Cloudy
2:55 PM 24.8 °F 15.3 °F 21.2 °F 86% 29.53 in 10.0 mi WSW 9.2 mph - N/A   Partly Cloudy
3:15 PM 24.8 °F 16.1 °F 21.2 °F 86% 29.52 in 10.0 mi SW 8.1 mph - N/A   Partly Cloudy
3:35 PM 24.8 °F 16.1 °F 23.0 °F 93% 29.52 in 10.0 mi SW 8.1 mph - N/A   Scattered Clouds
3:55 PM 24.8 °F 16.9 °F 23.0 °F 93% 29.50 in 10.0 mi SSW 6.9 mph - N/A   Scattered Clouds
4:15 PM 26.6 °F 16.2 °F 23.0 °F 86% 29.51 in 10.0 mi SW 11.5 mph - N/A   Mostly Cloudy
4:35 PM 26.6 °F 18.2 °F 23.0 °F 86% 29.51 in 10.0 mi SSW 8.1 mph - N/A   Mostly Cloudy
4:55 PM 26.6 °F 19.1 °F 23.0 °F 86% 29.50 in 10.0 mi South 6.9 mph - N/A   Mostly Cloudy
5:15 PM 26.6 °F 16.8 °F 23.0 °F 86% 29.48 in 10.0 mi South 10.4 mph - N/A   Overcast
5:35 PM 26.6 °F 17.5 °F 23.0 °F 86% 29.46 in 10.0 mi South 9.2 mph - N/A   Overcast
5:55 PM 26.6 °F 16.8 °F 23.0 °F 86% 29.43 in 10.0 mi SSE 10.4 mph - N/A   Mostly Cloudy
6:15 PM 26.6 °F 16.2 °F 23.0 °F 86% 29.43 in 10.0 mi South 11.5 mph - N/A   Scattered Clouds
6:35 PM 26.6 °F 15.7 °F 23.0 °F 86% 29.42 in 10.0 mi SSE 12.7 mph - N/A   Partly Cloudy
6:55 PM 26.6 °F 16.2 °F 23.0 °F 86% 29.38 in 10.0 mi SSE 11.5 mph - N/A   Partly Cloudy
7:15 PM 26.6 °F 15.2 °F 23.0 °F 86% 29.36 in 10.0 mi SSE 13.8 mph - N/A   Partly Cloudy
7:35 PM 28.4 °F 16.6 °F 23.0 °F 80% 29.36 in 10.0 mi South 16.1 mph 24.2 mph N/A   Partly Cloudy
7:55 PM 28.4 °F 16.6 °F 23.0 °F 80% 29.35 in 10.0 mi South 16.1 mph - N/A   Partly Cloudy
8:15 PM 28.4 °F 15.8 °F 23.0 °F 80% 29.33 in 10.0 mi South 18.4 mph - N/A   Clear
8:35 PM 28.4 °F 16.6 °F 23.0 °F 80% 29.31 in 10.0 mi SSE 16.1 mph - N/A   Partly Cloudy
8:55 PM 30.2 °F 18.1 °F 23.0 °F 75% 29.29 in 10.0 mi South 18.4 mph 21.9 mph N/A   Partly Cloudy
9:15 PM 32.0 °F 20.8 °F 23.0 °F 69% 29.28 in 10.0 mi South 17.3 mph 24.2 mph N/A   Mostly Cloudy
9:35 PM 32.0 °F 21.6 °F 24.8 °F 75% 29.27 in 10.0 mi South 15.0 mph 23.0 mph N/A   Partly Cloudy
9:55 PM 32.0 °F 22.5 °F 24.8 °F 75% 29.27 in 10.0 mi South 12.7 mph - N/A   Clear
10:15 PM 32.0 °F 23.0 °F 24.8 °F 75% 29.25 in 10.0 mi South 11.5 mph 19.6 mph N/A   Clear
10:35 PM 32.0 °F 22.1 °F 26.6 °F 80% 29.23 in 10.0 mi South 13.8 mph 19.6 mph N/A   Clear
10:55 PM 32.0 °F 27.5 °F 26.6 °F 80% 29.23 in 10.0 mi South 4.6 mph - N/A   Clear
11:15 PM 33.8 °F 25.3 °F 26.6 °F 75% 29.23 in 10.0 mi SSW 11.5 mph - N/A   Clear
11:35 PM 33.8 °F 21.9 °F 26.6 °F 75% 29.22 in 10.0 mi SSW 21.9 mph 31.1 mph N/A   Clear
11:55 PM 33.8 °F 23.2 °F 28.4 °F 81% 29.21 in 10.0 mi SSW 17.3 mph 29.9 mph N/A   Partly Cloudy